COSMOS 475

Satellite information

Favourite Embed

Satellite Type and Status

PAYLOADIN ORBIT

Key statistics

Satellite COSMOS 475 at a glance.

Uptime

19554

Days in orbit

Revolutions

≈ 13.8

Per day

Orbit

LEO

Low Earth Orbit

Inclination

74.0

Latest

Satellite identification and parameters

Extended collection of information and parameters for COSMOS 475.

Object identification

Identified? True

Debris? False

Object name: COSMOS 475

International designator: 1972-009A

Object number (NORAD): 5846

Object ID (CCSDS): 5846

Country: COMMONWEALTH OF INDEPENDENT STATES (CIS)

Current information (Y/N): Y

RCS size: LARGE

Orbital parameters

Period: 104.622 minutes

Inclination: 74.0466 deg

SMA: 7354.866 km

Apoapsis: 993.813 km

Periapsis: 959.649 km

RAAN: 239.331 deg

Eccentricy: 0.00232254

Argument of periapsis: 212.6563 deg

Mean anomaly: 211.2263 deg

Mean motion: 13.76387051 rev/day

Mean motion (dot): 0.00000021 rev/day2

B* drag term: 0.000044184495 1/REarth

Two-line elements (TLE)

Creation date: Sept. 8, 2025, 3:16 a.m.

Reference frame: TEME

Reference center: EARTH

Epoch: Sept. 7, 2025, 11:25 p.m. UTC

TLE line 0: 0 COSMOS 475

TLE line 1: 1 05846U 72009A 25250.97582845 .00000021 00000-0 44184-4 0 9991

TLE line 2: 2 05846 74.0466 239.3310 0023225 212.6563 211.2263 13.76387051688260

Live tracking on map

Real-time ground track for satellite COSMOS 475.

In-orbit conjunctions

A list of the most updated potential collisions computed for object COSMOS 475.

Target Orbit TCA Probability of collision Miss distance Type
NOAA 16 DEB SSO 2025-07-13 16:36:56 0.0001027127 50.0 (m) DEBRIS
FENGYUN 1C DEB SSO 2025-06-23 01:09:44 0.0002482625 558.0 (m) DEBRIS
COSMOS 1275 DEB LEO 2024-08-08 14:04:04 0.0002002207 69.0 (m) DEBRIS

Associated space launch

The first soviet navigation system called Tsiklon consisted of Zaliv satellites in low earth orbit.

COSMOS 475 was lifted into orbit during the mission ‘Kosmos-3M | Zaliv 10’, on board a Kosmos-3M space rocket.

The launch took place on Feb. 25, 1972, 7:52 a.m. from 132/2.

For more information about the launch, click the button.

Launch to space Kosmos-3M | Zaliv 10
Kosmos-3M | Zaliv 10

Agency: N/A

Status: Launch Successful

Launch date: Feb. 25, 1972, 7:52 a.m. UTC

Rocket: Kosmos-3M

Launch pad: 132/2

Location: Plesetsk Cosmodrome, Russian Federation

...

Latest news about this satellite

There are no fresh news available about this satellite. Check back as we update our databases every day.


Newsletter sign-up

Weekly statistics, charts and insights to help you stay on top of the space industry.